Location: Vihti�l�
(61.3833°N, 23.0667°E)
Time: 04:13:06
(UTC+00:00)

Cosmos 1844 Rocket - Pass Details

Date: 29 November 2020
Orbit: 824 x 845 km, 71.0° (Epoch: 19 January)

Event Time Altitude Azimuth Distance (km) Brightness Sun altitude
Rises 04:14:05 0° 196° (SSW) 3,387 5.8 -19.0°
Reaches altitude 10° 04:16:34 10° 191° (S) 2,459 5.1 -18.8°
Maximum altitude 04:21:58 49° 118° (ESE) 1,087 3.7 -18.1°
Drops below altitude 10° 04:27:25 10° 46° (NE) 2,480 5.6 -17.5°
Sets 04:29:56 0° 41° (NE) 3,420 6.2 -17.2°
